Wind_Speed
4 3 4 6 7 7 7 4 2 3 3 4 6 5 7 7 5 3 6 4 5 6 3 2 4 6 5 6 5 5 11 14 14 12 10 10 9 10 10 10 9 8 8 12 17 17 17 19 20 20 23 26 23 21 21 20 21 22 23 23 22 22 22 23 23 21 20 18 17 17 16 16 14 14 17 17 14 12 12 11 10 10 8 7 9 9
4 5 6 9 9 8 6 4 2 4 5 5 5 5 7 7 6 5 6 4 7 5 2 5 4 6 5 5 5 3 7 11 15 14 13 13 10 10 12 13 12 8 8 11 14 16 19 20 20 23 26 27 25 23 22 21 21 21 23 23 23 23 23 23 23 21 19 18 18 17 16 17 16 14 14 13 11 11 11 10 11 11 9 9 11 12
4 6 9 11 9 7 4 3 5 4 5 4 4 5 6 5 4 6 5 6 7 3 3 6 6 6 6 7 5 2 7 10 14 15 15 15 12 11 12 13 12 10 10 11 11 15 20 21 19 23 26 26 27 25 23 22 21 22 22 23 24 24 24 23 21 20 20 18 17 17 18 19 18 15 13 12 12 13 12 11 12 11 9 9 10 11
4 7 11 11 7 6 2 4 5 5 4 2 2 2 6 6 3 4 5 4 5 3 1 5 7 6 6 8 7 2 6 8 11 14 14 14 14 13 13 14 13 13 12 11 11 11 15 17 17 21 23 23 25 25 24 23 23 23 22 23 25 24 24 21 20 20 20 19 19 20 22 23 22 19 16 16 15 15 14 13 13 12 11 11 12 12
7 7 6 4 6 4 2 4 3 3 3 4 3 3 5 7 4 1 2 4 6 5 2 4 6 6 6 6 6 5 3 6 8 11 12 11 11 12 12 13 12 12 12 12 11 9 10 13 15 20 22 21 23 24 24 25 25 24 23 24 25 24 23 22 21 22 22 23 25 26 26 24 22 20 19 18 17 15 15 15 13 12 12 13 15 13
9 6 4 6 4 2 3 2 1 2 1 4 4 5 6 8 8 4 1 3 6 5 3 4 3 5 6 5 7 6 1 5 6 8 9 8 8 11 13 11 10 10 10 11 12 10 10 13 16 19 21 21 22 23 23 26 27 25 24 24 24 23 23 23 23 23 23 25 27 27 25 24 23 21 19 19 18 18 17 15 14 12 10 10 12 12
5 4 5 6 3 3 3 1 3 2 1 3 4 4 3 6 8 5 1 3 3 2 4 5 5 3 6 6 7 5 3 5 6 6 7 5 8 11 12 12 11 9 10 10 11 11 11 14 16 17 21 23 23 25 24 25 27 26 25 25 24 24 23 24 25 24 24 25 25 24 23 23 24 23 20 19 19 19 17 16 15 13 11 10 11 11
2 3 3 5 4 2 1 2 5 5 3 3 6 4 5 5 6 5 4 2 3 2 3 2 6 2 4 6 7 6 5 5 5 6 7 7 10 13 12 12 14 13 12 12 11 12 12 15 17 18 22 24 25 27 25 25 27 27 27 26 24 24 24 24 26 25 25 25 24 23 22 23 23 23 23 21 20 18 16 17 16 14 13 13 12 10
3 6 4 4 4 1 3 5 7 6 4 4 5 4 1 4 6 7 5 3 2 2 4 5 3 3 4 6 6 7 5 2 3 4 5 6 7 13 16 14 14 12 11 11 11 11 11 15 21 23 25 26 26 28 28 27 27 26 27 27 25 26 25 25 26 26 25 25 24 24 24 24 23 23 23 21 20 18 17 18 17 15 15 14 12 11
3 5 7 5 4 3 4 7 7 5 6 5 2 1 3 3 4 5 4 3 2 3 3 6 2 2 4 6 4 4 3 1 3 2 3 4 4 8 15 11 9 9 9 11 12 12 13 19 24 24 25 25 26 29 29 28 27 27 29 30 28 28 27 26 26 26 26 25 25 25 26 27 26 25 23 21 21 19 18 19 17 14 14 14 12 11
4 3 4 3 3 3 3 5 5 5 4 3 3 3 4 3 3 3 4 1 2 1 5 5 2 2 4 4 2 1 2 3 4 2 3 5 7 7 12 10 8 9 8 11 12 11 13 17 20 22 23 24 24 26 28 29 29 28 30 31 30 30 30 29 27 27 28 27 26 25 26 29 29 26 24 23 22 20 19 19 17 14 14 15 13 12
4 1 2 1 4 4 2 4 4 6 3 3 4 3 4 4 4 2 3 2 1 4 4 2 5 3 3 3 3 4 2 4 6 4 7 9 9 8 10 9 8 7 6 7 8 6 8 10 13 18 20 22 22 20 21 25 27 27 30 32 30 29 30 29 29 28 28 28 27 24 26 29 28 26 25 24 23 22 20 19 18 17 16 15 14 12
4 1 2 2 3 5 2 2 5 6 2 3 3 2 2 3 3 3 3 2 1 4 4 3 5 2 4 4 3 5 2 4 5 6 8 11 9 8 9 9 8 9 9 9 7 5 6 5 7 12 16 20 20 17 16 19 22 23 24 27 28 30 32 30 29 29 28 28 27 23 25 28 25 25 25 23 23 22 20 20 20 19 16 14 14 12
4 5 3 2 1 4 3 2 1 4 1 3 4 3 4 2 2 1 3 1 1 4 5 4 1 1 4 4 3 7 5 1 6 8 8 9 9 8 10 12 11 10 10 9 8 6 6 5 4 5 12 17 16 17 19 18 20 20 19 21 19 20 27 29 29 28 26 27 26 22 24 26 24 25 24 21 22 22 19 20 20 18 16 15 13 12
2 5 4 3 1 5 5 4 5 4 3 3 4 4 5 4 3 3 2 2 2 4 5 2 1 1 2 4 5 5 3 5 9 8 8 8 8 10 11 12 11 9 9 8 7 7 6 6 9 7 5 15 15 18 20 17 17 17 18 17 9 8 15 23 27 27 25 25 24 20 22 25 24 24 23 20 20 20 19 18 19 17 16 14 13 12
2 4 5 6 6 7 6 4 5 3 3 3 1 2 2 4 5 3 3 5 5 2 3 2 2 2 2 5 6 3 2 8 8 7 8 8 9 12 10 9 9 8 7 7 7 7 6 7 11 13 8 13 17 17 17 16 16 17 17 15 9 8 6 6 11 15 18 23 23 19 21 24 24 23 21 20 19 18 18 17 17 16 15 14 13 13
2 5 5 6 10 8 5 2 2 2 2 2 2 0 2 5 6 4 2 2 3 2 2 3 3 1 0 4 5 3 4 7 8 8 9 9 10 11 9 8 8 7 7 7 7 6 6 8 11 13 13 13 15 14 13 13 15 17 16 13 13 10 2 5 11 11 11 18 19 18 20 22 23 22 20 20 19 17 16 16 16 15 14 14 14 14
2 4 7 3 5 5 4 3 3 3 4 2 2 4 3 2 4 4 1 2 2 1 3 4 3 1 1 2 5 2 3 6 7 9 10 10 11 11 9 9 8 8 8 7 7 7 6 8 10 13 15 14 12 11 13 15 17 17 16 16 19 16 6 9 21 20 13 13 13 14 17 19 21 20 18 18 18 17 16 15 17 15 13 13 14 14
2 1 7 6 4 2 1 2 2 4 1 2 4 5 1 3 1 1 2 0 0 1 3 3 2 1 2 2 5 4 3 5 6 8 10 10 10 10 9 9 9 8 8 7 7 6 6 8 12 15 17 18 17 12 9 12 14 13 16 21 25 24 13 10 17 20 13 8 8 10 12 15 17 17 16 15 16 18 17 15 16 17 14 13 13 14
2 2 4 6 6 6 4 1 2 2 4 2 3 3 1 4 2 1 2 3 3 2 2 3 3 2 1 3 2 3 4 7 7 7 7 9 9 9 8 8 8 8 7 6 6 5 5 8 13 16 17 18 19 18 16 13 11 10 13 21 23 23 20 15 17 21 17 10 11 12 10 12 14 15 16 15 15 18 19 16 15 15 14 13 13 13
2 3 2 6 8 7 3 1 2 2 1 1 2 2 2 1 2 1 2 1 2 2 1 1 2 3 4 2 2 2 2 7 9 8 5 7 10 9 8 8 7 7 7 5 5 4 5 8 12 15 15 16 16 17 18 18 20 19 15 17 17 18 23 20 18 22 22 18 16 16 13 13 13 14 15 14 14 16 19 18 16 14 13 12 13 13
2 2 1 3 5 3 5 6 5 2 2 3 2 3 2 1 3 3 3 3 1 3 3 3 1 5 5 1 1 4 4 5 10 8 4 6 10 9 8 8 7 7 7 6 5 4 4 7 10 12 14 14 15 15 15 16 18 21 19 15 12 14 20 20 18 20 21 19 18 18 16 14 13 14 14 12 12 12 15 17 17 16 14 12 12 12
1 3 2 1 3 4 8 10 10 9 5 1 3 4 4 3 4 4 1 3 2 1 3 4 1 5 5 1 2 4 4 4 8 9 7 7 9 9 8 7 7 7 6 6 6 6 6 9 11 12 13 14 13 14 15 15 16 17 19 19 17 16 16 14 13 14 14 16 17 17 15 13 12 12 12 11 10 8 10 12 13 13 14 14 13 11
2 3 2 2 4 4 8 10 9 10 8 4 0 3 3 2 4 5 4 3 2 2 3 3 0 4 5 4 2 4 1 4 8 9 9 7 6 8 8 7 7 7 7 7 6 6 8 10 12 13 13 13 14 16 16 17 18 17 17 18 18 18 15 12 12 11 10 11 12 11 12 12 11 10 10 10 9 8 8 9 10 11 13 13 12 12
1 1 2 1 3 5 6 7 7 7 6 3 3 4 4 2 4 3 1 2 1 1 3 4 1 3 5 5 2 3 4 6 7 6 8 7 6 6 7 6 7 7 7 7 6 5 7 8 9 11 12 13 15 17 17 17 17 18 18 17 16 15 13 12 12 11 10 10 9 9 10 9 8 9 9 9 9 9 8 7 7 9 11 11 11 12
1 1 3 4 2 1 1 0 2 5 5 3 5 5 4 4 4 3 2 3 1 3 3 4 2 4 4 6 6 6 7 8 7 6 7 6 5 5 6 5 6 6 6 6 6 5 5 6 7 10 13 14 16 17 16 16 15 16 16 16 16 15 14 12 10 9 9 9 9 8 9 9 9 10 11 11 12 13 13 11 10 10 12 13 14 14
2 1 2 3 5 5 4 3 3 4 4 4 6 7 6 5 4 5 3 1 3 1 3 1 5 3 2 4 6 6 7 7 6 6 6 5 4 5 6 6 5 5 6 6 7 7 6 6 6 9 12 14 15 16 15 14 14 14 14 14 14 14 14 13 11 10 10 9 9 9 8 9 9 10 11 12 12 13 13 13 13 14 15 15 15 14
3 1 1 2 3 3 4 7 8 8 6 6 5 6 7 6 5 5 1 4 3 4 2 3 4 4 2 1 5 5 6 7 6 7 7 7 7 6 5 7 6 6 7 6 6 7 7 7 7 8 10 12 15 15 15 14 13 12 13 12 11 11 12 12 12 11 11 10 9 9 9 8 8 7 6 6 8 9 10 10 11 12 14 15 15 15
4 1 3 2 4 5 5 6 7 7 7 6 5 5 5 6 7 5 2 4 2 4 5 5 1 0 3 1 5 5 5 5 5 5 6 7 9 8 7 7 7 7 8 8 8 7 7 6 6 9 12 12 14 15 15 14 13 13 13 10 8 8 8 8 9 9 8 9 9 8 7 7 7 5 3 3 4 5 5 5 5 6 8 10 11 13
4 1 2 1 2 5 5 6 7 7 7 7 7 6 4 6 7 6 4 2 2 2 4 2 3 1 3 2 5 4 5 6 6 5 3 1 3 6 8 8 9 9 8 8 8 8 7 7 7 10 14 15 15 14 13 12 12 12 11 9 7 7 6 6 6 6 6 6 6 5 4 4 4 3 2 2 2 2 3 3 3 4 5 6 7 8
3 1 1 4 4 5 5 6 7 7 7 6 7 8 6 6 6 5 5 5 4 3 2 6 7 3 3 4 7 7 8 8 8 9 9 6 5 1 2 4 7 9 10 8 8 8 9 8 7 9 12 13 11 11 11 10 10 9 8 7 6 5 5 5 4 3 3 4 4 2 2 2 2 1 0 0 1 1 1 2 3 5 6 7 9 9
3 1 2 5 3 3 4 6 6 7 8 7 7 6 5 5 4 2 3 4 4 4 6 9 6 5 4 5 8 7 9 9 7 8 9 8 8 8 7 7 6 4 9 12 11 10 10 8 8 9 11 10 7 6 6 6 8 8 5 4 3 3 3 4 4 3 2 2 2 2 3 3 2 2 2 2 2 3 4 4 4 4 4 5 7 8
3 3 1 3 2 2 3 4 6 7 8 5 4 3 1 2 3 4 4 5 6 5 4 5 2 5 4 6 7 7 8 8 7 8 8 8 9 9 9 10 9 5 3 6 8 10 9 7 10 13 15 13 10 9 8 7 9 8 4 2 1 1 1 2 2 1 0 1 2 2 3 3 2 2 3 2 2 3 5 5 6 6 6 6 6 6
2 3 3 3 2 2 1 4 6 5 2 4 3 4 2 2 7 6 4 6 7 5 4 3 3 6 8 8 8 8 7 7 8 9 8 7 7 9 10 10 9 8 9 8 7 9 10 11 13 15 17 15 12 10 8 5 5 4 1 2 3 1 1 2 3 3 2 1 0 1 2 3 3 3 2 2 2 3 4 5 6 7 8 9 9 9
4 3 3 2 3 2 1 6 5 2 5 2 5 10 6 3 8 8 6 10 11 7 6 7 8 9 9 8 8 7 6 7 10 12 11 10 7 7 9 11 10 8 9 10 9 8 9 12 13 13 15 13 10 9 10 6 1 2 1 1 1 1 2 5 5 4 2 2 1 1 2 3 4 4 3 2 3 4 5 6 7 8 8 9 10 11
5 4 3 2 2 2 2 3 2 4 3 4 9 10 8 6 6 6 8 11 12 9 8 8 7 8 9 9 7 6 6 6 9 10 12 11 10 8 8 8 9 8 7 7 8 9 11 12 10 10 11 9 5 6 9 9 5 3 4 3 4 4 5 6 5 4 4 4 3 3 4 5 4 3 2 2 3 5 6 7 8 9 9 9 9 10
6 4 2 2 1 3 3 2 2 2 6 6 5 6 5 5 4 3 5 6 9 9 7 6 7 9 9 8 8 7 6 6 7 8 9 10 9 9 8 8 8 8 8 9 8 10 12 10 6 7 9 6 4 4 5 7 6 6 6 5 7 9 8 7 7 6 6 6 5 4 5 5 5 5 4 4 5 6 7 8 8 9 9 9 10 11
7 6 5 3 1 3 4 1 2 1 2 3 3 5 5 5 5 3 4 3 7 9 8 7 8 9 8 8 9 8 6 7 6 5 7 9 8 8 9 10 12 12 10 13 15 12 9 9 6 5 8 8 6 5 6 5 4 5 6 8 10 11 11 10 9 7 7 7 7 6 7 7 7 7 7 6 6 7 7 8 8 8 9 9 10 11
3 3 5 4 2 3 4 2 2 2 2 3 5 8 7 6 6 5 4 2 6 8 7 8 8 8 8 7 8 7 6 6 4 4 5 7 8 7 8 8 12 16 14 13 16 17 14 10 6 4 6 7 4 5 6 6 6 5 6 9 11 11 12 12 12 11 10 10 9 9 9 9 9 9 10 10 10 10 11 13 13 12 11 11 11 12
7 4 4 3 2 3 4 3 2 2 1 4 6 7 8 8 7 5 3 1 6 7 7 7 7 7 7 6 6 6 5 4 3 4 5 7 8 9 10 9 10 13 15 14 14 14 14 12 10 7 6 4 4 6 8 9 9 8 8 10 11 12 13 14 13 12 12 11 11 11 11 11 11 11 11 11 11 11 12 13 13 12 11 11 11 11
4 3 3 2 1 2 3 2 1 1 1 4 6 7 8 8 6 5 2 3 5 6 6 7 6 6 6 6 5 4 3 2 3 4 6 8 9 9 12 14 14 13 14 14 13 13 14 14 12 10 9 8 6 7 9 11 13 13 12 11 10 11 12 12 12 13 14 14 14 14 13 13 12 11 11 11 11 11 11 11 10 10 9 8 8 8
3 2 2 2 2 2 1 2 2 1 2 4 5 6 6 4 2 1 2 4 4 4 6 6 6 6 7 6 5 4 4 5 5 6 7 7 7 7 9 13 15 15 15 15 14 13 14 15 16 15 13 10 7 9 12 13 13 14 14 13 13 13 14 14 15 16 16 15 15 15 15 14 13 14 15 16 15 15 15 14 14 13 11 9 8 7
3 1 1 2 2 2 2 3 2 1 2 2 3 5 4 2 2 3 2 3 3 5 6 5 5 7 7 6 6 6 6 7 6 6 7 7 7 8 10 12 13 13 15 17 15 12 11 14 18 19 16 12 12 16 18 16 14 14 15 15 14 13 14 15 14 14 13 14 16 17 17 17 17 17 17 17 16 16 16 16 16 16 16 15 12 8
4 1 0 1 1 2 3 2 1 2 1 2 1 1 1 2 3 2 0 2 3 4 5 5 5 6 6 6 7 7 7 7 7 7 7 7 7 8 10 13 14 14 16 17 17 17 15 15 17 18 18 17 17 17 18 18 16 15 15 14 11 9 10 10 10 11 12 14 16 16 14 12 12 12 11 11 12 11 12 14 15 15 16 16 15 12
3 2 1 0 1 2 2 2 1 2 3 3 1 0 1 2 3 4 5 4 4 4 5 4 5 6 7 6 7 6 6 6 7 7 7 7 7 8 10 13 16 17 18 19 20 21 19 17 16 18 20 21 17 13 12 12 10 8 9 10 10 10 10 11 12 13 13 13 13 12 11 11 13 14 14 13 13 13 14 16 17 17 16 15 16 15
3 4 3 2 2 2 3 5 7 6 3 3 4 4 5 6 7 7 7 5 4 5 5 5 5 6 7 7 6 6 6 7 7 7 7 7 7 9 11 14 15 18 19 19 21 22 21 19 18 19 21 22 17 12 10 7 4 4 8 10 12 14 16 16 16 14 12 11 11 12 13 15 16 17 17 15 15 15 15 15 16 15 11 10 13 15
3 5 5 3 3 3 3 6 9 6 4 4 5 5 7 8 8 7 6 4 5 5 5 6 6 6 7 7 6 6 7 7 7 7 7 7 7 9 11 12 14 17 19 20 21 23 23 20 18 15 12 11 10 9 9 9 8 9 11 13 14 16 17 15 13 11 11 11 12 14 15 15 15 15 15 14 13 13 13 12 11 10 8 8 11 15
2 4 4 4 4 1 0 5 8 6 5 6 7 6 7 7 7 6 5 5 5 5 5 7 7 6 6 6 6 7 7 7 7 7 7 7 7 8 10 13 14 16 19 20 22 22 22 21 19 13 7 7 8 9 11 13 13 14 14 15 16 16 14 10 9 10 11 11 11 12 13 14 15 15 15 15 14 13 12 11 11 12 11 11 11 14
3 3 1 2 3 2 3 7 9 7 6 8 9 7 7 7 7 7 7 7 7 6 6 7 7 7 6 6 6 6 7 7 7 7 8 7 7 8 12 15 16 17 18 20 21 21 20 20 19 15 11 10 10 11 12 13 14 16 16 15 15 14 11 9 9 10 11 11 11 12 12 13 14 14 13 13 12 11 11 12 12 13 13 13 13 14
4 2 1 3 3 3 4 6 7 4 3 5 7 8 8 7 7 7 7 7 7 6 5 6 7 8 8 8 7 6 6 7 8 9 9 8 9 12 14 15 16 17 18 19 21 21 22 22 22 18 14 13 13 13 14 13 12 11 10 9 8 8 8 8 8 9 10 11 13 15 16 17 17 16 13 11 10 11 10 9 10 11 11 11 12 14
2 2 2 4 2 0 3 5 4 2 3 5 5 7 7 5 6 6 6 6 5 6 6 6 6 6 7 9 9 8 6 7 10 11 9 9 12 14 14 14 15 15 17 18 19 20 22 23 20 15 11 11 12 14 14 12 9 6 3 3 5 6 6 6 7 8 10 12 14 16 18 20 20 19 15 12 12 13 12 10 9 9 9 9 11 13
Wind_Direction
173 183 234 225 232 233 218 193 227 318 352 333 327 322 321 322 319 55 114 138 94 108 179 210 246 253 234 241 246 160 138 138 144 138 133 144 151 153 155 159 163 171 171 172 185 182 157 156 175 179 158 148 152 153 153 152 151 153 151 150 150 150 150 148 145 142 143 144 141 139 130 129 131 123 120 119 118 114 106 108 104 95 101 120 130 121
178 195 233 230 231 228 201 142 79 12 9 356 348 331 327 329 318 1 77 81 61 76 313 335 326 291 298 306 288 169 130 136 147 145 146 157 165 164 160 161 166 171 165 165 174 169 160 162 169 165 153 152 154 153 156 157 158 161 158 157 157 156 155 148 146 146 146 149 147 143 137 136 136 132 127 117 113 115 107 105 107 101 93 101 122 122
203 227 241 235 230 223 207 84 64 42 24 8 0 340 314 309 324 344 21 57 63 64 321 346 354 316 314 329 313 152 122 140 155 156 158 161 166 170 164 162 165 164 157 155 155 155 156 152 147 151 153 154 157 158 159 159 163 168 167 166 163 161 157 150 152 154 152 154 154 150 147 142 135 132 131 116 108 111 106 106 107 104 99 101 113 112
202 240 241 226 201 194 194 49 43 31 16 331 306 321 293 291 348 347 326 11 59 80 48 11 355 315 318 341 324 303 117 136 152 154 161 165 167 172 168 162 161 159 156 152 151 150 148 142 140 151 153 152 157 161 160 161 168 175 176 173 169 164 160 158 158 159 157 156 152 144 140 138 131 126 123 117 113 114 114 112 105 98 96 102 113 116
223 232 224 170 146 158 105 58 39 30 354 302 236 216 264 285 316 337 290 356 26 12 23 43 8 317 316 335 302 306 80 127 142 141 155 175 175 165 156 158 157 153 154 152 152 151 143 144 152 161 159 154 161 164 163 166 172 179 183 179 174 168 164 163 157 153 152 147 141 135 131 130 127 125 124 125 124 120 116 114 109 106 102 103 108 112
234 228 147 105 109 125 102 113 179 155 279 303 256 221 232 263 289 284 240 49 41 347 307 97 54 301 301 304 273 291 37 161 164 144 164 185 167 147 144 151 153 144 149 153 154 154 147 154 163 167 167 164 169 172 169 172 175 180 185 184 180 174 169 168 161 156 153 147 144 141 136 133 132 134 136 137 134 127 121 119 118 116 112 110 108 109
227 211 126 109 78 41 61 358 283 210 207 289 266 273 271 267 289 296 318 58 91 274 255 142 126 267 299 304 275 274 266 226 193 155 167 158 121 136 145 146 149 145 149 157 158 156 153 162 167 171 174 173 178 181 176 175 177 180 184 186 185 180 174 172 168 167 163 155 152 151 146 141 142 144 145 142 137 131 130 128 124 118 114 112 108 109
166 114 102 116 99 65 77 288 260 211 189 240 240 278 323 320 321 325 338 322 199 223 279 180 145 192 286 286 282 287 282 255 194 152 154 139 124 138 145 146 157 160 159 162 164 161 160 166 169 175 180 180 184 186 182 178 179 181 184 187 189 183 178 174 172 173 172 164 159 155 148 145 149 148 145 143 139 135 133 129 125 120 115 112 110 110
145 135 162 145 111 137 201 239 241 201 190 233 221 213 324 1 344 338 343 306 231 121 315 299 163 171 271 267 283 301 295 271 139 132 132 127 129 148 155 159 164 160 152 154 159 163 163 169 173 176 181 186 188 187 184 182 181 183 184 186 189 185 181 179 177 177 175 169 162 154 149 149 152 148 144 143 141 138 134 130 130 128 125 123 121 116
182 170 171 142 124 185 219 239 248 230 209 210 206 132 51 25 323 318 315 307 9 89 261 280 239 184 271 269 280 313 296 183 121 102 117 97 65 146 158 153 142 141 146 154 162 168 169 173 176 176 177 184 188 186 185 184 183 185 185 185 188 188 185 183 180 178 174 168 159 156 156 154 150 147 145 144 142 141 138 136 136 134 131 130 126 122
227 167 137 122 155 197 256 259 263 272 235 150 88 25 25 343 285 272 256 259 47 335 250 253 274 268 275 281 275 278 262 182 141 61 65 79 54 107 145 149 146 153 161 163 164 168 168 169 172 173 176 182 184 183 185 186 186 186 185 185 188 189 188 186 183 178 174 166 160 163 164 157 151 151 151 148 146 145 144 142 141 138 136 134 132 131
269 112 132 187 191 192 279 292 297 298 293 74 69 39 21 336 324 320 317 49 106 264 265 322 2 331 264 268 260 254 236 131 126 105 95 97 76 85 125 145 148 127 114 133 143 146 145 151 166 174 180 185 184 179 179 185 188 186 186 188 188 189 189 187 184 179 175 169 166 169 167 160 157 157 157 155 153 152 150 147 145 144 142 140 139 140
301 268 210 215 200 190 192 285 312 312 315 97 106 91 66 324 356 8 339 16 209 244 259 319 17 25 249 247 276 298 274 145 121 118 112 106 97 85 92 99 100 92 90 98 102 100 101 118 169 182 185 187 185 178 176 184 188 186 187 188 190 190 189 189 185 180 178 174 169 171 168 162 161 163 164 161 157 157 155 151 151 151 149 147 147 152
322 318 299 293 229 186 163 153 275 301 296 147 166 155 153 166 54 349 286 312 271 278 279 285 37 23 294 272 299 323 307 139 94 101 111 103 101 94 84 87 89 88 87 85 86 86 79 84 109 175 201 197 185 180 183 186 188 189 191 192 199 201 189 187 186 181 181 177 172 172 171 165 164 166 169 165 161 162 158 155 158 160 160 157 156 161
295 311 294 289 275 171 177 185 184 215 254 213 202 154 147 156 144 183 215 162 213 275 301 317 132 162 285 267 270 304 341 66 74 87 96 85 81 84 83 87 89 85 85 86 86 82 69 67 62 51 192 193 182 184 188 188 187 194 195 192 220 243 196 190 189 183 181 180 174 175 174 169 167 169 171 168 165 166 162 160 166 169 170 167 162 164
246 259 226 222 223 187 177 197 192 205 273 280 322 68 144 175 153 155 183 177 178 231 314 287 213 185 197 258 269 263 64 73 76 71 70 69 72 82 86 86 90 91 93 91 87 85 70 63 61 56 89 157 170 177 180 181 192 205 201 191 204 225 204 183 180 175 178 182 180 181 177 171 170 169 170 169 169 171 169 165 170 177 180 176 169 168
211 257 264 217 210 194 164 199 206 143 180 295 347 9 217 170 133 122 219 216 133 104 278 237 237 328 255 271 275 212 129 101 102 84 73 73 75 82 84 81 84 83 84 82 82 90 75 63 69 69 82 126 158 175 182 190 207 213 208 198 192 193 80 89 158 167 174 183 187 187 179 173 172 169 168 171 171 174 177 172 171 178 184 183 179 176
142 257 300 298 219 208 180 231 314 60 104 70 308 267 292 36 91 102 116 333 54 126 263 229 202 185 130 271 298 278 146 120 112 103 97 90 82 83 83 84 84 78 76 73 66 70 69 63 67 68 71 87 120 164 193 207 216 216 219 216 194 177 129 141 171 175 172 178 186 188 182 176 174 171 169 173 176 175 178 180 176 175 179 184 186 185
64 297 300 321 315 301 136 178 314 347 52 156 234 264 6 62 12 41 120 179 166 196 276 268 220 125 135 228 300 327 56 76 72 88 101 97 92 92 89 86 84 78 72 64 59 55 58 66 68 67 65 67 75 91 134 179 195 196 203 201 185 174 159 139 163 173 174 175 167 171 182 184 182 181 178 179 184 182 180 181 178 176 178 181 186 190
87 104 283 308 337 356 13 111 176 299 315 282 259 293 57 133 162 201 169 168 165 181 253 306 343 356 251 249 310 10 63 75 55 48 82 101 99 93 91 88 84 84 80 70 66 55 56 76 81 78 71 67 67 67 73 87 87 94 146 162 161 168 170 155 157 169 177 184 169 160 175 189 188 187 186 187 190 188 185 182 178 177 181 183 186 191
41 91 245 302 345 6 349 276 172 168 254 6 31 16 341 1 80 60 333 1 115 135 188 74 18 287 267 276 322 0 94 108 87 52 52 96 97 87 88 91 90 94 96 96 98 84 69 80 88 90 84 77 74 68 66 68 65 68 100 134 144 159 164 158 159 169 178 185 179 168 173 189 194 191 188 186 182 182 185 185 181 176 177 184 194 200
32 94 173 302 340 335 284 299 327 345 144 140 131 144 167 131 85 69 344 322 73 126 159 134 157 264 258 243 343 9 32 102 111 103 94 100 98 95 94 93 96 103 107 113 116 102 78 77 88 96 96 91 86 78 70 66 67 71 82 100 123 142 150 155 161 168 174 176 177 179 180 185 194 196 192 185 175 174 182 187 187 185 185 186 192 200
80 100 87 299 273 275 290 307 320 323 322 260 168 152 136 123 113 113 189 279 284 188 149 119 146 261 264 262 65 48 23 57 104 116 117 104 102 105 103 98 96 96 97 97 95 94 90 87 88 89 89 88 87 83 77 70 70 75 81 87 96 111 126 141 152 159 165 166 170 180 183 180 184 188 190 189 188 191 192 192 195 198 202 203 202 204
11 76 76 300 287 300 310 312 315 321 330 332 77 93 94 140 140 144 183 202 224 227 151 116 220 271 282 293 104 125 138 77 91 108 113 107 105 106 105 106 105 100 100 101 100 108 107 97 90 86 84 83 81 82 80 77 77 77 82 89 94 103 113 122 136 147 153 156 163 172 173 173 179 189 194 194 198 211 213 201 197 200 206 214 219 217
318 66 97 34 341 339 332 332 336 340 354 355 333 39 65 36 47 60 6 52 55 287 114 112 218 266 285 307 20 80 68 67 78 96 105 104 104 107 107 107 111 113 115 116 116 117 116 111 102 95 92 86 84 86 84 84 86 83 82 88 94 103 113 124 139 151 158 169 186 199 193 185 191 206 215 214 211 220 228 216 203 204 209 221 231 230
145 123 109 120 150 247 271 333 4 342 352 354 334 1 31 6 29 82 63 57 62 323 36 97 186 260 304 347 19 41 58 73 79 73 75 75 80 104 115 114 114 114 108 105 103 100 103 110 114 113 109 103 98 97 93 91 93 92 91 92 94 98 106 114 128 143 158 171 182 194 199 201 212 224 231 233 231 231 235 235 232 231 229 232 235 235
80 65 87 142 178 199 232 264 322 342 336 327 330 339 343 344 32 74 63 105 172 349 345 166 154 168 292 21 40 36 48 73 100 103 98 97 96 106 119 124 125 116 108 99 88 83 77 73 87 109 122 125 120 116 114 109 103 98 94 93 94 96 101 105 111 122 136 151 164 174 182 191 207 223 230 234 235 236 238 241 241 238 235 234 233 230
73 12 308 265 249 259 279 299 317 323 309 300 312 318 316 330 10 35 343 236 161 94 315 273 99 111 235 41 66 61 53 58 91 124 139 140 135 138 142 143 143 130 121 113 97 89 82 68 59 70 95 118 122 117 115 113 110 107 99 92 91 90 93 99 106 117 127 136 151 161 165 167 175 193 208 216 224 228 233 240 242 239 237 238 240 240
109 195 254 274 288 294 295 302 310 308 299 304 307 303 318 350 360 356 272 233 127 122 221 247 43 55 245 53 70 92 94 76 92 133 158 155 148 155 161 160 162 158 148 134 122 113 101 87 69 54 59 79 97 103 105 104 103 107 105 101 98 92 86 90 99 109 118 126 137 142 147 155 156 157 163 176 198 212 219 227 236 239 242 247 250 252
102 177 262 5 335 330 338 330 329 325 311 308 311 314 0 35 16 356 324 304 61 140 210 175 72 306 248 86 73 83 81 62 51 55 64 110 157 168 175 181 180 166 147 136 135 132 120 105 90 71 62 61 67 77 89 96 96 98 100 100 98 101 104 98 96 102 101 104 119 126 128 139 148 160 196 218 217 229 243 253 262 265 268 272 266 262
76 144 1 52 26 345 340 326 324 326 318 320 325 327 357 19 2 353 347 349 18 4 4 66 59 323 287 55 57 53 54 49 40 38 34 10 349 5 173 217 211 173 144 142 150 140 129 121 107 93 84 74 67 69 76 87 94 91 83 78 73 80 100 109 107 97 79 81 93 101 112 130 135 116 74 328 305 302 300 298 289 278 279 285 283 279
93 122 18 58 47 311 315 326 331 347 354 352 340 332 359 15 1 359 3 16 37 12 15 43 33 298 297 44 53 54 56 53 40 35 37 27 19 29 32 1 307 218 158 156 157 141 136 139 129 112 97 88 88 83 72 88 110 109 90 67 57 55 75 102 106 88 57 62 75 39 41 60 59 29 17 5 357 357 358 358 348 329 313 305 300 295
118 110 94 84 91 256 292 338 350 12 12 340 304 309 343 51 56 43 16 30 60 67 56 55 355 295 330 34 47 50 55 56 42 35 45 46 33 29 29 17 355 352 84 139 146 129 118 115 111 105 94 86 82 73 65 83 106 111 112 119 174 221 105 107 124 151 243 79 56 16 19 21 0 357 2 357 352 341 336 339 340 337 334 333 333 326
139 126 160 150 136 212 265 18 16 14 329 262 290 347 337 115 95 81 35 23 47 73 100 93 29 3 13 34 46 43 44 60 59 48 49 51 43 35 29 22 18 36 59 69 87 98 99 100 103 101 94 91 88 72 55 72 109 113 143 184 198 231 303 310 297 267 225 180 37 340 344 331 316 322 330 332 341 336 330 325 319 313 313 314 313 312
170 171 198 162 140 180 52 46 31 292 238 215 29 13 1 58 92 97 70 34 30 40 59 58 42 29 27 36 48 43 33 51 62 50 39 37 39 43 41 32 29 43 64 71 67 63 76 90 97 94 87 88 89 63 27 12 71 137 120 166 162 12 299 292 309 327 323 307 298 299 307 298 285 276 273 287 306 312 314 312 308 304 303 303 300 298
173 175 181 154 138 131 86 95 177 242 294 34 37 18 6 17 39 66 57 28 18 30 50 53 45 38 36 33 32 27 19 41 58 46 33 31 29 31 42 46 46 46 54 75 90 87 74 66 72 88 87 76 74 57 27 13 15 32 33 15 348 333 302 291 305 314 307 305 302 298 305 307 300 284 268 278 286 285 288 290 291 296 299 299 298 295
199 189 153 125 119 118 129 183 222 315 346 0 15 10 14 18 12 65 87 29 6 16 34 41 37 35 35 29 16 3 8 44 54 29 17 23 23 21 26 35 46 53 50 51 71 103 104 86 77 103 97 65 29 28 20 8 6 14 15 355 335 326 315 309 307 297 300 318 328 331 337 344 345 338 328 309 285 271 272 275 278 284 289 292 293 292
202 186 145 134 163 127 132 214 299 327 297 290 318 347 4 8 350 10 96 54 351 352 10 30 31 25 24 24 13 2 18 54 49 5 2 11 8 13 25 26 25 27 40 50 44 43 69 87 99 111 90 68 43 14 358 342 341 1 357 334 319 313 307 305 307 308 315 325 328 328 327 324 323 325 326 318 302 288 284 284 284 285 286 290 293 293
77 114 121 125 143 126 129 167 227 202 219 293 330 343 344 341 349 14 70 51 335 335 1 26 25 20 21 21 14 16 44 59 22 327 344 356 355 12 25 23 19 13 16 39 39 23 21 38 52 62 66 61 34 353 344 327 308 299 294 289 289 293 298 301 305 306 303 302 305 309 308 307 306 303 298 295 292 289 286 281 277 278 279 282 286 289
42 36 60 91 142 173 168 181 208 158 92 333 328 335 332 334 8 52 92 337 322 324 350 19 20 15 19 21 21 32 55 57 351 320 340 351 358 11 9 4 13 9 358 4 17 14 6 3 2 9 21 17 336 320 320 318 310 291 269 266 270 276 282 283 286 290 290 290 293 296 297 299 298 293 288 286 286 287 287 279 270 268 271 272 274 279
31 26 44 70 133 182 178 173 127 86 14 314 311 326 334 341 25 78 160 253 297 315 344 12 13 7 14 24 29 28 20 11 359 353 355 354 353 355 352 350 352 352 347 347 355 359 352 342 339 341 334 325 321 315 308 306 301 287 273 264 260 267 275 279 284 290 294 295 294 293 291 289 288 291 294 296 294 293 293 290 280 271 266 263 266 272
24 16 17 21 41 66 106 115 87 55 254 262 288 330 357 9 42 106 213 253 281 318 341 352 1 10 14 14 14 2 340 342 359 3 352 342 336 335 338 339 337 335 335 333 329 331 333 329 323 314 301 293 302 309 305 301 295 286 277 265 260 266 272 277 284 290 295 297 297 295 293 289 289 295 297 295 292 289 288 289 287 276 262 257 265 262
32 26 355 3 22 48 56 66 68 288 244 243 291 341 27 83 186 211 240 277 308 344 353 355 12 22 16 6 2 355 344 343 348 349 342 330 324 324 324 324 322 318 319 316 308 302 304 305 303 299 290 283 285 288 287 284 283 284 282 275 271 271 269 271 279 287 294 300 300 297 294 291 289 286 282 280 280 280 282 285 285 277 265 257 251 230
19 30 74 16 36 52 46 47 203 207 108 56 349 339 116 176 200 189 243 331 348 9 12 11 13 13 12 7 356 345 342 341 337 337 337 330 322 320 317 316 315 312 313 311 306 301 298 288 284 291 299 302 298 286 275 271 274 281 283 283 287 289 281 280 286 289 294 298 297 294 293 294 293 289 289 291 290 288 292 291 289 290 278 254 230 205
4 12 88 54 57 89 120 152 124 87 77 53 24 64 42 7 19 42 33 17 18 24 21 14 359 355 360 357 346 336 328 323 320 320 321 314 307 307 307 307 307 306 305 304 303 302 298 289 285 289 291 293 295 289 275 271 279 295 306 313 319 321 317 312 306 301 297 295 292 294 298 299 299 299 301 303 299 296 296 292 291 296 289 256 224 201
13 19 43 29 9 47 85 73 53 42 28 7 3 16 33 30 28 32 29 20 11 8 9 7 355 348 348 344 338 329 320 320 323 321 318 315 311 310 309 309 313 314 310 306 308 308 303 294 289 286 281 280 281 282 282 287 306 330 328 324 319 318 318 314 309 305 302 300 298 298 297 296 297 296 295 295 294 289 287 285 285 286 277 241 211 192
15 27 47 35 15 26 48 47 38 17 342 1 12 15 28 29 22 20 19 3 356 0 359 356 354 350 347 345 343 334 324 324 325 318 316 319 315 311 313 313 316 319 316 314 316 319 318 311 299 290 287 295 303 310 315 323 328 324 319 315 312 310 308 304 303 304 306 307 304 299 294 293 295 295 293 292 291 287 282 278 270 260 242 218 197 181
9 41 51 29 16 19 43 31 25 3 347 14 24 22 23 15 0 356 354 349 358 5 1 358 359 355 347 339 333 327 321 318 317 313 310 309 305 304 307 307 308 310 311 312 314 318 321 319 311 304 308 319 325 325 320 316 316 314 312 309 307 305 301 297 297 299 298 297 297 296 294 292 291 292 292 291 289 285 278 267 255 247 241 230 211 193
46 50 35 18 13 347 349 17 21 10 0 9 12 4 355 348 343 350 358 4 7 3 358 355 346 330 322 321 320 319 317 313 311 307 304 302 301 302 301 301 305 307 308 310 312 313 315 316 313 314 318 318 318 318 313 308 305 301 298 298 298 296 293 289 288 289 289 289 293 294 293 290 286 286 289 287 276 264 258 252 243 237 234 229 223 220
59 57 18 52 43 355 352 18 27 22 339 330 340 342 339 346 3 9 7 6 358 344 337 331 320 311 311 312 313 313 309 307 308 306 302 296 292 292 293 295 301 304 306 310 312 311 310 309 304 303 311 322 330 331 324 320 317 304 291 285 281 276 273 273 277 284 288 291 293 290 287 286 282 279 283 281 257 232 225 224 217 213 217 217 213 214
87 128 76 76 101 76 12 11 12 359 284 290 326 344 339 357 24 15 352 339 327 322 326 325 321 323 318 313 319 327 323 321 323 320 314 310 310 312 315 316 317 316 314 313 312 310 309 308 303 299 302 314 329 336 333 330 330 327 311 279 263 258 258 264 275 287 291 290 289 286 284 282 280 277 275 265 237 211 191 175 169 172 182 194 197 196
Height
742 753 759 758 756 752 747 744 743 743 742 743 745 746 746 744 734 722 721 716 713 725 730 730 733 731 730 725 720 720 721 726 733 739 745 750 752 753 754 756 758 760 760 760 763 763 763 766 770 776 779 779 781 782 784 786 789 791 792 793 795 796 797 798 799 800 801 802 803 804 805 805 806 807 808 809 810 810 811 813 814 815 815 816 816 817
744 757 757 749 747 743 740 739 739 740 742 742 745 748 747 747 738 724 723 720 713 726 734 731 734 734 732 730 726 721 723 730 733 737 743 746 750 751 751 754 756 758 759 760 763 763 764 768 771 775 776 777 779 781 783 785 789 791 792 793 794 796 797 798 799 799 800 801 802 803 804 805 806 807 808 809 810 811 812 813 814 815 816 816 817 818
753 756 748 739 738 737 737 736 737 740 742 744 745 749 751 746 739 730 726 723 720 729 736 734 738 740 733 730 727 723 724 730 731 732 736 740 746 749 749 752 754 756 758 759 761 762 764 767 770 773 774 776 778 779 782 784 788 791 793 794 794 795 796 797 798 799 800 801 801 802 803 805 806 808 809 810 811 812 813 814 815 816 816 817 817 818
759 750 737 733 733 735 737 736 738 741 743 745 747 752 753 744 745 746 737 730 727 731 736 736 739 740 733 729 727 723 721 724 727 729 732 734 739 742 745 747 750 754 756 758 760 761 764 767 769 772 773 775 776 778 779 782 787 791 793 794 794 794 795 796 797 798 798 800 801 802 803 805 806 808 810 811 812 813 814 815 816 816 817 817 818 819
749 738 728 730 732 733 738 737 739 745 748 747 746 749 750 742 744 748 740 734 733 734 733 737 748 746 735 735 732 724 721 723 723 726 730 732 733 737 741 745 747 750 754 757 760 761 764 767 769 771 772 773 776 777 778 780 785 789 792 793 793 793 794 795 795 796 797 798 799 801 803 805 807 809 810 811 813 813 814 815 816 817 817 818 818 819
740 730 726 731 733 733 738 740 740 745 751 751 745 743 743 739 740 742 740 741 748 752 739 740 766 764 739 737 737 726 724 727 723 723 727 728 730 736 742 746 749 751 753 755 758 761 764 766 769 771 772 773 775 776 777 779 783 787 790 792 793 793 793 794 794 794 795 796 797 799 800 803 805 808 810 810 812 813 814 815 816 817 818 818 819 819
733 727 725 730 734 735 739 742 739 740 752 756 745 736 737 737 739 740 740 746 758 760 742 739 766 773 751 741 737 730 729 729 726 725 725 727 731 737 742 746 749 752 754 756 758 760 763 766 768 770 770 771 773 774 776 778 781 784 787 790 792 792 792 792 792 793 793 794 796 797 798 801 804 806 808 810 811 812 813 815 816 817 818 819 819 820
730 730 730 730 733 738 743 745 738 736 750 754 739 732 736 737 740 741 740 747 752 750 745 741 752 767 764 748 734 731 733 733 730 728 726 727 731 737 741 744 746 748 750 753 756 759 761 764 766 767 769 770 771 773 775 777 779 781 785 788 790 791 791 790 791 791 792 793 794 795 797 800 803 805 807 809 810 811 813 814 815 817 818 819 819 820
727 732 734 732 736 741 742 740 734 734 745 744 732 731 734 736 740 740 744 749 745 750 761 752 747 766 771 749 734 733 736 738 735 731 729 727 731 736 738 740 742 744 747 751 755 757 759 761 763 764 766 768 771 772 774 776 778 781 783 786 788 789 789 789 789 790 790 791 792 794 796 799 802 804 806 808 809 811 812 813 815 816 817 818 819 820
725 726 726 728 736 739 736 732 728 733 739 734 728 732 733 735 738 740 748 751 749 761 772 758 749 768 772 751 741 741 740 741 737 732 730 727 731 736 736 739 743 746 748 750 751 753 755 758 760 762 765 767 770 771 773 775 778 780 782 784 785 786 787 787 788 789 789 790 791 793 795 797 801 803 806 808 809 811 812 813 814 816 817 818 819 820
721 717 718 723 730 730 729 728 727 729 730 727 729 735 738 740 740 744 748 749 761 774 770 758 751 764 773 759 747 745 741 738 735 734 734 731 734 738 738 741 744 745 746 747 749 751 753 757 760 762 764 766 769 771 773 775 777 779 780 781 783 784 785 786 787 788 789 790 791 793 794 796 799 802 805 807 808 810 811 812 813 815 817 818 819 820
721 722 722 721 721 723 726 729 727 724 724 727 733 741 751 754 751 755 754 755 775 783 768 759 754 763 776 765 747 741 735 733 734 735 736 736 739 741 740 742 744 745 746 747 751 754 755 759 761 762 764 765 768 771 773 775 776 778 779 780 781 782 785 786 787 789 789 790 791 793 795 796 798 801 803 806 808 809 810 811 813 814 816 817 819 820
729 727 724 721 719 720 728 735 733 728 727 732 738 747 764 772 771 776 775 773 781 780 766 759 759 766 771 758 747 741 734 731 731 732 736 736 738 742 743 745 747 748 749 750 754 756 758 760 761 762 764 765 768 770 772 774 775 777 778 780 781 782 784 787 789 790 791 791 792 794 795 797 799 801 803 805 807 809 810 811 812 813 815 817 818 819
743 733 724 726 726 720 726 738 743 740 735 738 743 751 768 779 787 793 789 785 786 778 763 755 761 772 770 756 747 742 735 731 729 732 735 735 736 740 743 747 749 749 751 753 755 757 759 761 761 762 763 764 767 769 770 771 773 775 777 779 783 786 788 789 790 791 792 793 793 795 796 797 799 801 804 806 807 809 810 811 812 813 814 815 817 818
757 753 735 731 731 724 724 730 736 737 736 737 734 741 757 765 778 790 788 789 791 781 767 760 767 777 775 760 744 737 736 734 733 734 734 735 738 741 744 747 750 751 753 754 756 758 759 760 761 762 762 763 765 766 767 769 771 773 775 778 785 793 794 792 792 793 793 795 795 796 797 798 799 801 804 806 808 809 810 811 812 812 813 814 816 817
757 755 732 724 724 722 724 723 720 728 739 738 729 738 752 750 757 772 774 775 779 780 775 769 767 766 763 755 740 735 737 736 737 737 737 741 743 745 748 751 753 755 755 756 757 759 759 760 761 762 762 763 765 767 768 769 771 772 773 776 784 794 797 794 796 797 797 797 797 796 797 798 799 801 803 806 808 810 811 811 812 812 813 814 815 816
756 751 727 721 722 717 720 720 717 728 741 740 737 744 743 734 742 762 770 765 769 783 780 769 765 761 758 755 742 736 738 738 739 742 745 749 748 750 754 754 756 757 757 758 758 760 761 761 763 764 764 766 767 768 769 769 770 770 772 774 783 794 797 795 796 798 797 797 797 797 798 799 800 801 803 805 807 809 811 811 812 813 813 814 814 815
748 750 731 723 728 718 712 717 718 719 728 740 747 742 734 732 737 752 770 773 778 788 781 767 768 769 769 766 751 741 743 743 741 744 750 752 752 755 757 758 759 759 759 760 761 762 763 763 765 766 767 767 768 769 770 770 771 772 775 778 785 793 796 793 793 793 794 795 796 798 799 800 801 802 803 805 807 809 810 811 812 812 813 814 814 815
739 752 740 723 728 721 710 721 731 723 720 731 738 732 737 753 756 756 769 779 784 789 782 769 766 770 774 771 760 754 753 750 747 749 753 754 755 758 759 760 761 762 763 764 765 766 766 767 768 768 768 769 769 770 771 772 774 776 778 780 784 789 792 792 791 791 794 795 796 798 801 803 803 803 804 805 806 808 809 810 811 812 813 813 814 815
734 753 752 730 724 726 721 729 742 738 727 727 731 731 737 751 760 759 761 768 776 785 785 777 773 774 773 767 762 759 756 754 754 755 756 756 757 759 760 762 764 765 767 768 769 769 769 770 770 769 770 770 770 771 771 773 774 775 776 777 780 782 784 787 788 789 793 796 796 798 801 804 804 804 804 804 805 806 807 809 810 811 812 813 813 814
735 750 758 742 730 736 739 736 737 739 736 736 743 747 747 747 753 758 758 759 768 780 787 787 788 783 768 759 759 756 752 753 755 758 761 760 759 761 763 765 766 768 770 771 772 772 771 772 771 771 772 771 771 772 772 773 774 774 775 776 777 778 779 783 785 786 790 794 796 796 799 802 804 804 804 804 804 805 806 808 809 810 811 812 813 813
744 750 757 755 748 749 746 734 728 731 733 737 743 749 751 751 756 768 773 766 764 773 780 786 792 783 762 754 756 753 751 753 754 759 765 763 762 764 765 767 768 769 771 773 773 773 773 773 773 773 773 773 773 774 774 775 775 775 776 777 778 779 781 783 785 786 789 792 795 796 798 800 802 803 804 804 804 805 806 807 807 808 810 811 812 812
743 748 756 760 755 750 741 730 727 728 727 730 735 739 744 748 755 771 781 774 767 768 772 781 790 778 758 753 754 752 753 755 755 759 764 765 764 764 766 768 770 771 772 773 774 775 775 775 775 775 774 774 775 775 775 776 776 777 778 778 779 781 783 786 787 789 791 793 795 797 798 799 801 802 803 803 804 805 806 806 806 807 808 810 811 812
743 749 759 761 754 747 739 731 728 726 728 735 736 734 739 745 749 756 763 763 766 768 771 782 790 776 759 753 752 752 753 756 759 759 763 767 766 766 768 769 771 772 773 774 775 776 776 777 777 777 777 777 777 777 777 777 778 779 780 781 782 783 785 787 789 791 793 795 797 798 798 799 800 802 803 803 804 805 806 805 805 806 807 809 810 811
749 754 760 767 769 764 756 750 746 741 741 746 743 738 739 742 745 750 754 758 767 768 766 778 789 779 763 755 753 754 755 758 763 763 764 768 769 770 770 770 772 773 774 776 776 777 777 777 778 778 778 779 779 779 780 780 781 781 782 783 784 785 787 788 790 792 794 796 799 800 800 800 801 802 804 804 804 804 805 805 805 805 806 807 808 809
751 757 760 771 781 780 775 770 764 758 754 751 748 744 743 743 747 754 760 768 775 772 766 775 784 778 766 759 756 757 758 763 768 768 768 770 772 772 772 772 773 773 775 776 777 778 779 778 779 779 779 780 781 781 782 782 783 783 784 785 786 787 788 790 791 792 794 796 798 799 799 799 801 802 803 803 803 803 804 804 804 804 805 806 807 808
752 758 759 766 773 774 773 767 759 757 759 758 755 751 749 748 750 756 765 772 773 772 772 772 774 775 771 765 761 759 760 766 770 770 771 772 773 773 773 773 774 774 775 776 776 778 779 779 780 781 781 782 782 783 784 784 785 786 786 787 788 789 790 791 792 793 794 796 796 797 798 799 801 801 802 802 802 802 803 803 803 803 804 805 805 806
757 763 760 761 764 763 762 759 754 755 758 758 757 756 754 753 754 759 767 767 764 771 778 771 767 775 774 766 765 765 762 765 769 771 772 772 771 772 772 773 774 775 775 776 777 778 779 780 781 782 783 783 783 784 785 786 787 787 788 789 790 790 791 792 793 794 795 796 797 798 798 799 800 801 801 801 801 802 802 801 802 802 802 803 803 804
758 765 761 760 763 760 758 758 757 757 757 755 756 757 757 758 761 764 766 763 762 770 776 768 765 772 772 766 767 767 763 764 766 768 769 769 769 769 770 771 773 774 774 775 777 779 779 781 782 783 784 785 785 786 786 788 789 789 790 791 792 792 793 793 794 795 796 797 798 798 799 799 800 800 801 801 800 801 801 801 801 801 801 802 802 803
756 764 761 761 766 765 762 762 760 760 760 758 757 757 759 763 766 767 767 764 762 766 768 767 769 771 769 766 765 764 764 765 766 766 768 770 769 767 767 769 771 772 773 775 777 778 780 781 782 784 785 786 787 788 789 790 790 791 792 793 793 794 794 794 795 795 796 797 798 798 799 799 799 800 800 800 800 800 800 800 800 800 800 800 800 801
757 763 761 762 769 771 766 764 763 763 765 765 763 761 761 763 764 766 766 764 765 768 768 768 773 773 767 763 763 764 766 768 770 770 771 773 773 769 769 770 769 769 771 774 776 778 779 781 782 784 786 787 789 789 791 792 792 793 794 794 795 795 795 795 795 796 796 797 797 798 798 798 798 799 799 799 799 799 799 799 799 799 799 799 799 800
759 764 763 765 776 778 769 767 769 768 770 772 770 766 764 765 766 767 769 769 772 775 774 775 780 779 770 765 765 767 768 771 773 773 773 777 777 775 776 776 772 769 768 770 773 776 778 779 781 784 786 788 789 790 792 793 793 794 795 795 796 796 796 796 796 796 797 796 797 797 797 797 797 797 798 798 798 798 798 799 799 799 799 799 799 799
759 764 766 770 780 780 771 770 772 773 780 780 771 765 764 765 767 769 771 772 773 776 781 785 787 782 774 769 769 770 771 773 775 776 777 779 779 779 779 778 774 772 771 771 772 773 777 780 782 784 786 788 790 791 793 794 794 795 796 797 797 797 797 797 797 797 797 797 797 797 797 797 797 797 797 797 798 798 798 798 798 799 799 799 799 799
757 762 766 768 777 780 774 771 775 784 791 784 770 765 764 764 767 771 774 776 775 777 781 784 785 782 777 775 777 777 776 775 777 779 780 780 780 781 780 779 777 776 776 776 775 775 777 781 783 785 787 789 791 792 793 794 795 796 796 797 797 797 797 797 797 797 797 797 797 797 797 797 797 797 797 797 797 798 798 798 798 799 799 799 798 798
759 762 765 766 772 777 774 777 788 795 788 776 771 771 768 766 767 769 775 780 780 779 782 784 786 786 783 781 781 780 777 777 779 781 782 782 782 782 781 781 781 781 780 781 781 781 781 782 784 785 787 789 790 791 793 794 795 796 796 797 797 797 798 798 797 797 797 797 797 797 797 797 797 797 797 797 797 798 798 798 799 799 799 799 798 798
758 762 764 765 771 776 778 785 793 789 775 771 777 776 772 773 772 771 781 790 788 784 786 788 788 787 785 785 783 780 778 778 781 784 784 784 784 784 784 784 784 785 786 786 787 786 786 786 787 787 788 789 790 791 793 795 795 796 796 796 797 797 798 798 797 797 797 797 797 797 797 797 797 797 797 797 797 798 798 799 798 799 799 798 799 798
753 759 762 766 771 776 780 785 785 779 777 781 785 782 780 783 780 777 786 796 794 788 788 789 788 787 786 786 786 783 779 779 785 788 787 787 786 786 786 786 786 786 787 787 788 788 788 788 789 790 790 790 791 792 793 795 795 796 796 796 797 797 797 797 797 797 797 797 797 797 797 796 796 796 796 796 797 797 797 798 798 798 798 798 798 798
748 754 760 768 773 774 779 786 787 786 791 793 791 787 784 784 782 779 785 797 798 792 790 790 790 790 789 787 788 785 782 786 793 795 791 789 788 787 787 788 788 787 787 788 789 789 788 788 790 791 791 791 792 793 793 794 795 795 796 797 797 798 797 797 797 797 796 796 796 796 796 796 796 796 796 796 796 796 796 797 797 797 797 797 797 797
748 753 758 766 772 774 781 790 791 791 797 801 797 791 785 784 783 779 788 802 803 796 792 792 792 793 792 791 790 788 789 796 800 797 792 791 790 789 790 790 789 789 789 789 790 789 789 789 790 790 790 790 792 793 793 793 794 794 796 797 797 798 797 797 797 796 796 796 796 796 796 796 795 795 795 795 795 795 795 795 796 796 796 796 796 796
758 761 763 770 774 774 779 785 789 795 803 804 800 794 788 785 781 783 797 809 805 798 796 795 794 794 794 793 793 793 796 800 801 797 793 792 791 791 792 791 791 790 789 790 790 791 791 791 791 790 790 790 791 792 792 793 793 794 795 796 796 797 796 796 796 796 796 796 796 796 795 795 795 795 795 794 794 794 794 794 794 794 795 795 795 795
768 770 773 776 776 776 779 782 790 804 809 803 799 796 789 785 787 797 809 811 803 800 799 795 795 796 795 794 795 796 797 798 796 795 794 793 792 792 792 792 792 791 790 790 790 791 791 791 791 791 791 791 791 791 792 792 792 793 793 794 794 795 795 795 795 795 795 795 794 794 794 794 794 794 793 793 793 793 793 793 793 793 793 793 794 793
778 781 780 780 779 780 783 785 795 808 810 803 800 796 790 794 804 810 810 805 800 800 798 796 796 797 797 797 797 797 796 795 794 795 794 793 794 793 793 793 792 792 791 791 790 790 791 790 790 790 790 790 790 791 791 791 791 791 792 792 792 792 793 793 793 793 793 793 793 793 793 793 793 792 792 792 792 791 791 792 792 792 792 792 792 791
784 786 786 786 784 784 787 792 802 810 807 801 800 798 797 804 810 807 802 801 799 799 799 799 799 799 800 800 799 798 798 796 795 795 795 795 795 793 793 793 792 792 791 791 790 790 790 789 789 788 788 788 789 789 789 789 789 789 789 790 790 790 791 791 791 791 791 791 791 791 791 791 791 790 791 790 790 790 790 790 790 790 790 790 790 789
789 791 792 793 791 792 798 803 805 806 802 799 801 801 801 802 800 798 799 800 800 800 802 802 801 801 801 801 800 800 799 798 797 797 796 796 796 794 794 793 792 791 791 790 790 789 788 788 787 786 787 787 786 786 786 786 786 786 787 788 788 788 789 789 789 789 789 789 790 789 789 789 789 789 789 788 788 788 788 788 788 788 788 788 788 787
796 793 794 794 792 794 799 802 801 801 801 800 799 799 799 798 798 799 801 802 802 803 803 803 803 802 802 802 802 801 800 799 798 797 796 796 796 795 794 793 792 791 790 789 789 788 787 786 785 784 784 784 784 785 784 784 785 785 786 786 787 787 787 787 787 787 787 787 788 788 788 787 787 787 787 787 787 786 786 786 786 786 786 786 785 785
797 791 790 793 792 792 795 798 801 803 803 800 798 798 799 800 801 802 803 804 805 804 803 803 804 803 802 803 802 801 801 800 799 798 797 796 796 795 794 793 792 791 790 789 788 787 786 785 783 782 782 782 782 782 782 782 783 783 784 785 785 785 785 785 785 785 785 785 786 786 786 785 785 785 785 785 785 784 784 785 784 784 784 784 784 783
795 792 794 798 799 798 800 803 804 804 802 800 800 801 801 802 804 804 804 804 804 804 804 803 803 803 803 803 803 803 802 801 800 799 798 796 796 795 794 792 791 791 790 789 788 787 786 784 782 781 780 780 780 780 780 781 781 781 781 782 782 783 783 783 783 783 783 783 783 783 783 783 783 783 783 783 783 782 783 783 782 782 783 782 783 783
796 795 800 805 805 803 804 806 805 803 802 801 803 804 805 805 805 804 803 804 803 803 804 803 803 803 803 803 803 802 801 800 800 798 797 796 795 794 793 792 790 789 789 788 787 786 785 784 783 781 780 779 779 779 779 779 778 778 779 779 780 780 780 780 781 781 781 781 781 781 781 781 781 781 781 781 780 780 781 781 780 780 781 781 781 782
797 800 805 807 806 805 806 807 807 806 805 804 805 806 806 805 804 804 804 804 804 804 804 803 803 803 803 802 802 801 800 799 798 797 796 795 793 792 791 790 789 788 787 786 785 785 784 783 783 781 780 779 778 777 777 777 777 777 777 777 777 777 778 778 778 779 779 779 779 779 779 779 779 779 778 778 778 778 778 778 778 778 778 779 779 780
800 805 806 807 811 813 813 812 813 814 814 811 808 807 807 806 806 806 806 806 805 805 805 804 803 802 802 801 801 800 799 798 797 796 795 793 792 791 790 788 787 786 785 784 784 783 782 782 781 779 778 777 776 776 776 776 776 776 775 775 775 775 776 777 777 777 777 777 777 778 777 777 776 776 776 776 776 775 775 775 776 776 776 777 777 778
803 806 806 810 815 816 814 813 813 815 815 812 809 808 808 807 807 807 807 807 806 805 804 804 803 802 801 800 800 799 799 798 797 796 794 792 791 790 788 787 786 785 784 783 782 781 780 779 778 777 776 775 774 774 775 775 775 775 775 774 774 775 775 775 775 776 776 776 776 775 775 774 774 774 774 773 773 773 773 774 775 775 776 776 776 777